Regional Weather Roundup
Issued by NWS

Home | Current Version | Previous Version | Text Only | Print | Product List | Glossary Off
Versions: 1 2 3 4 5 6 7 8 9 10 11 12 13 14 15 16 17 18 19 20 21 22 23 24 25 26 27 28 29 30 31 32 33 34 35 36 37 38 39 40 41 42 43 44 45 46 47 48 49 50

000
ASUS44 KMEG 020210
RWRTN
TENNESSEE HOURLY STATE WEATHER ROUNDUP
NATIONAL WEATHER SERVICE MEMPHIS TN
900 PM CDT SAT AUG 01 2015

TNZ002-004-019-021-049-052-054-088>092-020300-
WEST TENNESSEE

CITY           SKY/WX    TMP DP  RH WIND       PRES   REMARKS
MEMPHIS INTL   PTCLDY    85  65  51 N5        29.96R
NWS MEMPHIS      N/A     79 N/A N/A MISG        N/A
JACKSON        CLEAR     79  69  71 CALM      29.96R
DYERSBURG        N/A    N/A N/A N/A MISG        N/A
PARIS          CLEAR     73  70  88 CALM      29.99S
LEXINGTON      CLEAR     75  73  94 CALM      29.97R
$$

TNZ008-025-027-028-033-062-065-066-020300-
NORTH MIDDLE TENNESSEE

CITY           SKY/WX    TMP DP  RH WIND       PRES   REMARKS
NASHVILLE      PTCLDY    82  65  56 N9        29.98R
CLARKSVILLE    PTCLDY    76  68  76 N6        29.99R
SMYRNA         CLEAR     80  66  62 N6        29.99R
CROSSVILLE     CLEAR     74  62  66 N3        30.04S
$$

TNZ061-075-076-078-094-096-097-020300-
SOUTH MIDDLE TENNESSEE

CITY           SKY/WX    TMP DP  RH WIND       PRES   REMARKS
FAYETTEVILLE   CLEAR     75  63  64 N3        29.99R
TULLAHOMA      CLEAR     73  66  78 CALM      30.01R
WINCHESTER     CLEAR     72  68  88 CALM      29.99R
MCMINNVILLE    CLEAR     73  68  83 CALM      30.00R
COLUMBIA       CLEAR     81  70  69 CALM      29.98R
SHELBYVILLE    PTCLDY    79  70  73 W5        30.00R
$$

TNZ017-018-042-046-047-020300-
NORTHEAST TENNESSEE

CITY           SKY/WX    TMP DP  RH WIND       PRES   REMARKS
TRI CITIES     PTCLDY    71  62  73 NW3       30.01R
ELIZABETHTON   PTCLDY    64  61  88 CALM      30.02R
$$

TNZ012-013-036-069-073-074-020300-
CENTRAL EAST TENNESSEE

CITY           SKY/WX    TMP DP  RH WIND       PRES   REMARKS
KNOXVILLE      PTCLDY    80  60  50 N7        29.97R
OAK RIDGE      CLEAR     76  64  66 CALM      29.99R
GATLINBURG     CLEAR     73  63  68 CALM      29.98R
MORRISTOWN     CLEAR     75  64  69 CALM      30.01R
$$

TNZ083-085-099-020300-
SOUTHEAST TENNESSEE

CITY           SKY/WX    TMP DP  RH WIND       PRES   REMARKS
CHATTANOOGA    PTCLDY    79  68  69 NW3       29.96R
$$

SKY/WX REPORTED AS FAIR MEANS FEW OR NO CLOUDS BELOW
12 THOUSAND FEET.




USA.gov is the U.S. government's official web portal to all federal, state and local government web resources and services.